TimeCST,TemperatureF,Dew PointF,Humidity,Sea Level PressureIn,VisibilityMPH,Wind Direction,Wind SpeedMPH,Gust SpeedMPH,PrecipitationIn,Events,Conditions,WindDirDegrees,DateUTC
12:12 AM,35.6,32.0,87,30.11,10.0,NNE,8.1,-,N/A,,Overcast,30,2012-11-09 06:12:00
12:33 AM,35.6,32.0,87,30.12,10.0,NE,8.1,-,N/A,,Overcast,40,2012-11-09 06:33:00
12:52 AM,35.6,32.0,87,30.11,10.0,NNE,8.1,-,N/A,,Overcast,30,2012-11-09 06:52:00
1:12 AM,35.6,32.0,87,30.11,10.0,NNE,6.9,-,N/A,,Overcast,30,2012-11-09 07:12:00
1:33 AM,35.6,32.0,87,30.11,10.0,NNE,8.1,-,N/A,,Overcast,20,2012-11-09 07:33:00
1:52 AM,35.6,32.0,87,30.11,10.0,NNE,6.9,-,N/A,,Overcast,30,2012-11-09 07:52:00
2:12 AM,35.6,32.0,87,30.11,10.0,NE,10.4,-,N/A,,Overcast,40,2012-11-09 08:12:00
2:33 AM,35.6,32.0,87,30.11,10.0,NE,10.4,-,N/A,,Overcast,40,2012-11-09 08:33:00
2:52 AM,35.6,32.0,87,30.12,10.0,NE,10.4,-,N/A,,Overcast,40,2012-11-09 08:52:00
3:13 AM,33.8,32.0,93,30.12,10.0,NE,12.7,-,N/A,,Overcast,50,2012-11-09 09:13:00
3:32 AM,33.8,32.0,93,30.11,10.0,ENE,10.4,16.1,N/A,,Overcast,60,2012-11-09 09:32:00
3:52 AM,33.8,32.0,93,30.10,10.0,ENE,12.7,18.4,N/A,,Mostly Cloudy,60,2012-11-09 09:52:00
4:13 AM,33.8,32.0,93,30.11,10.0,ENE,10.4,-,N/A,,Overcast,60,2012-11-09 10:13:00
4:32 AM,33.8,32.0,93,30.11,10.0,ENE,11.5,-,N/A,,Overcast,60,2012-11-09 10:32:00
4:52 AM,33.8,32.0,93,30.11,10.0,ENE,11.5,17.3,N/A,,Overcast,60,2012-11-09 10:52:00
5:13 AM,33.8,32.0,93,30.10,10.0,ENE,13.8,18.4,N/A,,Overcast,70,2012-11-09 11:13:00
5:52 AM,33.8,32.0,93,30.10,10.0,ENE,11.5,17.3,N/A,,Overcast,70,2012-11-09 11:52:00
6:13 AM,33.8,32.0,93,30.11,10.0,ENE,10.4,-,N/A,,Overcast,70,2012-11-09 12:13:00
6:32 AM,33.8,32.0,93,30.11,10.0,ENE,8.1,-,N/A,,Overcast,70,2012-11-09 12:32:00
6:52 AM,33.8,30.2,87,30.10,10.0,ENE,11.5,-,N/A,,Overcast,70,2012-11-09 12:52:00
7:13 AM,33.8,32.0,93,30.10,10.0,ENE,12.7,19.6,N/A,,Overcast,70,2012-11-09 13:13:00
7:32 AM,33.8,32.0,93,30.09,10.0,ENE,10.4,20.7,N/A,,Mostly Cloudy,60,2012-11-09 13:32:00
7:53 AM,33.8,32.0,93,30.08,10.0,East,13.8,25.3,N/A,,Mostly Cloudy,80,2012-11-09 13:53:00
8:13 AM,33.8,32.0,93,30.09,10.0,ENE,11.5,16.1,N/A,,Mostly Cloudy,70,2012-11-09 14:13:00
8:32 AM,33.8,32.0,93,30.11,10.0,East,11.5,16.1,N/A,,Mostly Cloudy,90,2012-11-09 14:32:00
8:53 AM,33.8,32.0,93,30.10,10.0,East,8.1,-,N/A,,Overcast,80,2012-11-09 14:53:00
9:13 AM,33.8,32.0,93,30.11,10.0,East,9.2,-,N/A,,Overcast,80,2012-11-09 15:13:00
9:32 AM,33.8,32.0,93,30.11,10.0,ENE,9.2,-,N/A,,Overcast,70,2012-11-09 15:32:00
9:53 AM,33.8,32.0,93,30.11,10.0,East,11.5,-,N/A,,Overcast,80,2012-11-09 15:53:00
10:13 AM,33.8,32.0,93,30.10,10.0,East,11.5,-,N/A,,Overcast,80,2012-11-09 16:13:00
10:32 AM,33.8,32.0,93,30.10,10.0,ENE,13.8,17.3,N/A,,Overcast,70,2012-11-09 16:32:00
10:53 AM,33.8,32.0,93,30.10,10.0,East,9.2,-,N/A,,Overcast,80,2012-11-09 16:53:00
11:12 AM,33.8,32.0,93,30.08,10.0,East,13.8,18.4,N/A,,Overcast,80,2012-11-09 17:12:00
11:33 AM,33.8,32.0,93,30.07,10.0,ENE,15.0,-,N/A,,Overcast,70,2012-11-09 17:33:00
11:53 AM,33.8,32.0,93,30.06,10.0,ENE,12.7,17.3,N/A,,Overcast,70,2012-11-09 17:53:00
12:12 PM,35.6,32.0,87,30.05,10.0,East,15.0,19.6,N/A,,Overcast,80,2012-11-09 18:12:00
12:33 PM,33.8,32.0,93,30.05,10.0,ENE,16.1,23.0,N/A,,Overcast,70,2012-11-09 18:33:00
12:52 PM,33.8,32.0,93,30.04,10.0,East,15.0,21.9,N/A,,Overcast,80,2012-11-09 18:52:00
1:13 PM,33.8,32.0,93,30.03,10.0,ENE,12.7,21.9,N/A,,Overcast,70,2012-11-09 19:13:00
1:32 PM,35.6,32.0,87,30.03,10.0,ENE,16.1,-,N/A,,Overcast,70,2012-11-09 19:32:00
1:52 PM,35.6,32.0,87,30.03,10.0,East,13.8,20.7,N/A,,Overcast,80,2012-11-09 19:52:00
2:13 PM,35.6,32.0,87,30.03,10.0,East,13.8,18.4,N/A,,Overcast,90,2012-11-09 20:13:00
2:32 PM,35.6,32.0,87,30.02,10.0,East,10.4,16.1,N/A,,Overcast,80,2012-11-09 20:32:00
2:52 PM,35.6,32.0,87,30.02,10.0,ENE,10.4,-,N/A,,Overcast,70,2012-11-09 20:52:00
3:13 PM,35.6,32.0,87,30.02,10.0,ENE,11.5,19.6,N/A,,Overcast,70,2012-11-09 21:13:00
3:32 PM,35.6,32.0,87,30.02,10.0,East,10.4,-,N/A,,Overcast,80,2012-11-09 21:32:00
3:52 PM,35.6,32.0,87,30.01,10.0,East,16.1,-,N/A,,Overcast,90,2012-11-09 21:52:00
4:13 PM,35.6,32.0,87,30.01,10.0,East,16.1,20.7,N/A,,Overcast,90,2012-11-09 22:13:00
4:32 PM,35.6,32.0,87,30.00,10.0,East,13.8,19.6,N/A,,Overcast,90,2012-11-09 22:32:00
4:52 PM,35.6,32.0,87,30.00,10.0,East,12.7,24.2,N/A,,Overcast,90,2012-11-09 22:52:00
5:13 PM,35.6,32.0,87,29.99,10.0,East,12.7,20.7,N/A,,Overcast,90,2012-11-09 23:13:00
5:32 PM,35.6,32.0,87,29.99,10.0,East,12.7,25.3,N/A,,Overcast,90,2012-11-09 23:32:00
5:52 PM,35.6,32.0,87,29.99,10.0,East,12.7,20.7,N/A,,Overcast,90,2012-11-09 23:52:00
6:13 PM,35.6,32.0,87,30.00,10.0,East,11.5,18.4,N/A,,Overcast,90,2012-11-10 00:13:00
6:32 PM,35.6,32.0,87,29.99,10.0,East,12.7,23.0,N/A,,Overcast,90,2012-11-10 00:32:00
6:52 PM,35.6,32.0,87,29.98,10.0,East,13.8,19.6,N/A,,Overcast,100,2012-11-10 00:52:00
7:13 PM,35.6,32.0,87,29.98,10.0,ESE,15.0,23.0,N/A,,Overcast,110,2012-11-10 01:13:00
7:32 PM,35.6,32.0,87,29.99,10.0,East,10.4,20.7,N/A,,Overcast,100,2012-11-10 01:32:00
7:53 PM,35.6,32.0,87,29.98,10.0,East,10.4,17.3,N/A,,Overcast,100,2012-11-10 01:53:00
8:13 PM,35.6,32.0,87,29.98,10.0,ESE,9.2,17.3,N/A,,Overcast,110,2012-11-10 02:13:00
8:32 PM,35.6,32.0,87,29.97,10.0,ESE,11.5,19.6,N/A,,Overcast,110,2012-11-10 02:32:00
8:53 PM,35.6,32.0,87,29.97,10.0,ESE,9.2,17.3,N/A,,Overcast,110,2012-11-10 02:53:00
9:13 PM,35.6,32.0,87,29.97,10.0,ESE,13.8,26.5,N/A,,Overcast,110,2012-11-10 03:13:00
9:32 PM,35.6,33.8,93,29.96,10.0,ESE,12.7,20.7,N/A,,Overcast,110,2012-11-10 03:32:00
9:53 PM,35.6,33.8,93,29.95,10.0,ESE,19.6,27.6,N/A,,Overcast,120,2012-11-10 03:53:00
10:13 PM,35.6,33.8,93,29.94,10.0,ESE,10.4,19.6,N/A,,Overcast,110,2012-11-10 04:13:00
10:32 PM,35.6,33.8,93,29.92,10.0,East,10.4,20.7,N/A,,Overcast,100,2012-11-10 04:32:00
10:53 PM,35.6,33.8,93,29.92,10.0,ESE,16.1,24.2,N/A,,Overcast,120,2012-11-10 04:53:00
11:12 PM,35.6,33.8,93,29.91,10.0,ESE,16.1,24.2,N/A,,Overcast,120,2012-11-10 05:12:00
11:33 PM,37.4,33.8,87,29.90,10.0,ESE,13.8,25.3,N/A,,Overcast,110,2012-11-10 05:33:00
11:53 PM,37.4,33.8,87,29.90,10.0,ESE,16.1,20.7,N/A,,Overcast,120,2012-11-10 05:53:00